Regional Weather Roundup
Issued by NWS Grand Forks, ND

Home | Current Version | Previous Version | Graphics & Text | Print | Product List | Glossary On
Versions: 1 2 3 4 5 6 7 8 9 10 11 12 13 14 15 16 17 18 19 20 21 22 23 24 25 26 27 28 29 30 31 32 33 34 35 36 37 38 39 40 41 42 43 44 45 46 47 48 49 50
399
ASUS43 KFGF 090331
RWRFGF
PRAIRIE TO PINES  WEATHER ROUNDUP
NATIONAL WEATHER SERVICE EASTERN NORTH DAKOTA/GRAND FORKS ND
900 PM CST MON FEB 08 2016

 **SATELLITE DATA USED TO AUGMENT SKY COVER AT AUTOMATED STATIONS**
 *****  WEATHER ACROSS EASTERN NORTH DAKOTA  *****

CITY           SKY/WX    TMP DP  RH WIND       PRES   REMARKS
GRAND FORKS    PTCLDY     9   2  73 NW18      30.26R WCI -10
GRAND FRKS AFB CLOUDY     9   1  71 N18       30.26S WCI -10
DEVILS LAKE    CLEAR      8   5  87 N8        30.25S WCI  -4
FARGO          CLEAR      9   1  70 NW24G32   30.23R WCI -12
WAHPETON ARPT  CLOUDY    10   1  67 N22G31    30.20S WCI  -9
$$

 ***** WEATHER ACROSS CENTRAL AND WESTERN NORTH DAKOTA  *****

CITY           SKY/WX    TMP DP  RH WIND       PRES   REMARKS
BISMARCK       MOCLDY    28  15  58 N10       30.26S WCI  19
MINOT          CLOUDY    21  14  74 W10       30.27R WCI  10
JAMESTOWN      CLEAR     13   9  84 N10       30.21S WCI   0
MINOT AFB      CLOUDY    17  15  91 CALM      30.27R
GARRISON         N/A     17  14  88 N10       30.26R WCI   5
WILLISTON      CLOUDY    30  21  69 CALM      30.27F
DICKINSON      CLOUDY    29  16  58 N5        30.21F WCI  24
HETTINGER      CLOUDY    31  13  47 N8        30.24F WCI  23
$$

 *****  OTHER AIRPORT OBSERVATIONS IN OUR AREA  *****

CITY           SKY/WX    TMP DP  RH WIND       PRES   REMARKS
WALHALLA       FAIR       5   3  92 NW9       30.28F WCI  -9
GRAFTON AIRPOR FAIR       7   1  78 NW12      30.28F WCI  -9
VALLEY CITY AR MOCLDY    10   9  92 N14G20    30.23S WCI  -5
CANDO          FAIR       9   7  92 N7        30.26F WCI  -3
CAVALIER APRT  FAIR       7   1  78 N9        30.27F WCI  -7
GWINNER        CLOUDY    14  10  85 N15       30.22R WCI  -1
SHEYENNE NWR     N/A      9   3  75 N10       29.95S WCI  -5
ROLLA          FAIR      12   7  79 NW13      30.23F WCI  -3
 ***** THE ABOVE OBSERVATIONS ARE NON NWS ARE NOT QUALITY
       CONTROLLED AND MAY MIS-REPORT RAIN FOR SNOW...
$$

  *****  WEATHER ACROSS NORTHERN MINNESOTA  *****

CITY           SKY/WX    TMP DP  RH WIND       PRES   REMARKS
FLAG ISLAND    PTCLDY     3  -2  78 N17       30.15R WCI -17
WARROAD        CLEAR      5   0  78 NW10      30.17R WCI -10
ROSEAU         CLEAR      5   0  78 NW13      30.18S WCI -12
HALLOCK        CLEAR      7   1  78 N14       30.25S WCI -10
THF RVR FALLS  NOT AVBL
BAUDETTE       CLOUDY     5  -2  72 NW15      30.10R WCI -13
WASKISH        CLOUDY     7   0  72 NW12G20   30.10R WCI  -9
CROOKSTON      CLEAR      9   3  78 N18       30.24R WCI -10
STEPHEN NDAWN    N/A      7   1  78 N14         N/A  WCI -10
GREENBUSH NDAW   N/A      3   0  85 NW14        N/A  WCI -15
$$
  *****  WEATHER ACROSS CENTRAL AND WEST MINNESOTA  *****

CITY           SKY/WX    TMP DP  RH WIND       PRES   REMARKS
FOSSTON        LGT SNOW   7   1  78 N18G29    30.15R WCI -12
BEMIDJI        FLURRIES   6   1  78 N17G25    30.07R WCI -13
PARK RAPIDS    CLOUDY     9   1  70 N18G26    30.04S WCI -10
ELBOW LAKE     CLOUDY     8   3  79 NW20G30   30.13R WCI -11
WADENA         FLURRIES   7   1  78 NW16G22   30.06R WCI -11
DETROIT LAKES  LGT SNOW   9   5  85 NW21G28   30.13R WCI -11
MOORHEAD       CLEAR      9   1  72 N23G30    30.21S WCI -12
FERGUS FALLS   CLOUDY     9   3  78 N30       30.18R HAZE    WCI -14
MORRIS MN      MOCLDY     9   1  72 NW26G33   30.12R WCI -13
STAPLES        CLOUDY     9   1  72 N14       30.04R WCI  -8
$$
  *****  WEATHER ELSEWHERE ACROSS MINNESOTA  *****

CITY           SKY/WX    TMP DP  RH WIND       PRES   REMARKS
DULUTH         FLURRIES   5  -2  72 NW15G28   29.89R WCI -13
INTRNTL FALLS  CLOUDY     3  -4  72 N15       30.05S WCI -16
ELY            LGT SNOW   3   0  85 NW8G20    29.92S WCI -10
CLOQUET        CLOUDY     7  -2  66 NW15G24   29.93S WCI -11
WHEATON        CLOUDY    10   7  85 NW25G31   30.21R WCI -10
BRAINERD       MIX PCPN   9   1  70 N17       30.01S WCI  -9
HIBBING        LGT SNOW   2  -3  80 NW18      29.96S WCI -19
ALEXANDRIA     CLOUDY     8   1  73 N22G35    30.05S WCI -12
SAINT CLOUD    CLOUDY    11   2  67 NW16G24   30.00S WCI  -6
MINNEAPOLIS    FLURRIES  14   5  67 NW21G29   29.97S WCI  -4
$$

  *****  WEATHER ACROSS SOUTH DAKOTA  *****

CITY           SKY/WX    TMP DP  RH WIND       PRES   REMARKS
SIOUX FALLS    MOCLDY    20  12  71 N16       30.10F WCI   6
BROOKINGS      CLEAR     14   9  80 N18       30.09S WCI  -3
WATERTOWN      CLEAR     13   7  77 N17       30.11R WCI  -4
HURON          CLEAR     22  13  68 N17       30.18R WCI   8
SISSETON         N/A     11   6  81 N22       30.18R WCI  -8
ABERDEEN       CLEAR     22  11  62 N16       30.21R WCI   8
MITCHELL       CLEAR     24  15  68 N14       30.18R WCI  12
PIERRE         MOCLDY    30  18  60 NW10      30.21S WCI  21
MOBRIDGE       CLOUDY    32  19  58 N13       30.19S WCI  22
RAPID CITY     CLOUDY    36  17  46 N6        30.23S
$$

  *****  SOME WEATHER IN NEARBY STATES *****

CITY           SKY/WX    TMP DP  RH WIND       PRES   REMARKS
GLASGOW MT     PTCLDY    30  20  66 S3        30.24F
GREAT FALLS MT MOCLDY    41  28  60 SW13      30.34R
CHEYENNE WY    MOCLDY    37  22  54 NW18G24   30.31F
SCOTTSBLUFF NE CLEAR     33  27  78 NW9       30.28F
OMAHA NE       CLOUDY    24  18  77 N6        30.10S WCI  17
DES MOINES IA  FLURRIES  19   9  65 NW22G33   30.00S WCI   2
DAVENPORT IA   CLOUDY    17   9  70 NW18      29.87S WCI   1
CHICAGO IL     LGT SNOW  23  19  85 NW14G22   29.74S FOG     WCI  11
EAU CLAIRE WI  LGT SNOW  11   5  77 NW10      29.90R WCI  -3
LA CROSSE WI   LGT SNOW  15  10  80 NW13      29.89S WCI   1
$$

  *****  SOME NATIONAL WEATHER *****

CITY           SKY/WX    TMP DP  RH WIND       PRES   REMARKS
LA GUARDIA NY  FRZ DRZL  28  25  86 NE9       29.80S WCI  20
RALEIGH NC     CLOUDY    38  37  97 CALM      29.67F
ATLANTA GA     PTCLDY    39  26  59 W14G29    29.83R
NEW ORLEANS LA CLEAR     50  15  24 NW15      30.12R
OKLAHOMA CITY  PTCLDY    38  12  34 N14       30.25S
ALBUQUERQUE NM PTCLDY    47  21  35 N8        30.37R
SALT LAKE CITY MOCLDY    32  26  78 N6        30.62F
LOS ANGELES CA CLEAR     74  29  19 W3        30.09R
BOISE ID       CLEAR     38  32  79 CALM      30.63F
SEATTLE WA     PTCLDY    50  43  77 N12       30.33S
$$

*** WEATHER ACROSS MANITOBA...SASKATCHEWAN AND ONTARIO ***
                ***ONTARIO***

CITY           SKY/WX    TMP DP  RH WIND       PRES   REMARKS
GERALDTON      LGT SNOW  -2  -8  78 N9        29.83S DRFTSNOWWCI -18
THUNDER BAY    LGT SNOW   7   0  72 N13G21    29.90R WCI  -9
SIOUX LOOKOUT  FLURRIES   1  -4  78 N14G21    30.01R WCI -17
TORONTO        LGT SNOW  30  27  86 E13G23    29.58S WCI  20
BIG TROUT LK   FLURRIES  -4  -9  77 N5        30.09S WCI -15
PICKLE LAKE    NOT AVBL
DRYDEN         CLOUDY     1  -4  78 NW9G21    30.03S WCI -14
KENORA         FLURRIES   1  -2  85 N15G23    30.10R WCI -18
$$
                *** MANITOBA***

CITY           SKY/WX    TMP DP  RH WIND       PRES   REMARKS
BRANDON        CLEAR     10   5  79 NW13      30.26F WCI  -5
DAUPHIN        CLOUDY    12   9  85 W7        30.29F WCI   2
ISLAND LAKE    LGT SNOW  -2  -8  78 N12G18    30.22S DRFTSNOWWCI -20
PILOT MOUND      N/A      1  -2  85 W2          N/A
THE PAS        FLURRIES   9   1  72 N8        30.31F WCI  -4
THOMPSON       CLEAR    -13 -18  77 N5        30.34R WCI -25
WINNIPEG       CLEAR     -2  -8  78 NW8       30.28S WCI -17
LYNN LAKE      CLEAR    -18 -24  76 N7        30.33F WCI -35
CHURCHILL      CRYSTALS -20 -26  76 NW20G26   30.36R BLWGSNOWWCI -48
GILLAM         CLEAR    -17 -26  63 N13       30.30  WCI -39
$$
                ***SASKATCHEWAN***

CITY           SKY/WX    TMP DP  RH WIND       PRES   REMARKS
ESTEVAN        CLOUDY    25  21  86 CALM      30.26S
KINDERSLEY     PTCLDY    28  25  86 NW7       30.23F WCI  21
LLOYDMINSTER   CLOUDY    28  27  93 W9        30.21S WCI  20
PRINCE ALBERT  MOCLDY    23  19  86 W3        30.21F
REGINA         CLOUDY    27  21  80 SE7       30.24S WCI  19
YORKTON        FLURRIES  21  14  73 SW9       30.24S WCI  11
N. BATTLEFORD  PTCLDY    21  16  79 SW5       30.24F WCI  15
LA RONGE       CLEAR      1  -2  85 N3        30.26S
SASKATOON      CLEAR     23  23 100 SW3       30.22F
SWIFT CURRENT  PTCLDY    32  25  74 W7        30.21R
$$
NOTE: THESE ARE AUTOMATED STATIONS WITH LIMITED QUALITY CONTROL
      "FAIR" INDICATES FEW OR NO CLOUDS BELOW 12,000 FEET WITH NO
      SIGNIFICANT WEATHER AND/OR OBSTRUCTIONS TO VISIBILITY.
      SKY/WX - SKY CONDITION AND SIGNIFICANT WEATHER.
      TMP - AIR TEMPERATURE.    DP   - DEWPOINT TEMPERATURE.
      RH  - RELATIVE HUMIDITY.  PRES - PRESSURE.
      HX  - HEAT INDEX.         WCI  - WIND CHILL INDEX.
$




USA.gov is the U.S. government's official web portal to all federal, state and local government web resources and services.